Wind_Speed
11 10 10 8 7 6 5 3 4 6 7 6 7 9 10 12 13 12 12 12 12 11 11 11 11 11 10 9 8 6 6 6 6 5 4 4 4 4 4 3 3 3 3 3
13 12 9 8 8 8 7 6 6 6 8 8 8 8 9 10 10 12 11 11 12 11 10 10 10 10 10 9 8 7 6 6 6 6 5 4 3 2 2 2 2 2 2 1
14 13 12 11 11 10 10 9 8 8 9 9 9 9 8 8 9 11 11 10 10 10 9 9 9 9 9 9 9 8 7 6 5 5 5 5 4 3 2 2 2 1 1 1
18 17 15 13 13 12 12 11 10 12 11 10 9 11 10 10 7 10 10 9 9 9 10 9 8 8 8 8 8 8 7 6 6 5 6 6 5 4 3 3 2 2 2 2
20 18 17 16 15 15 14 13 13 12 11 12 11 11 11 10 9 10 10 10 8 9 9 9 8 7 7 8 7 7 6 6 6 5 5 5 5 5 4 3 3 3 3 4
20 18 18 18 17 17 15 13 13 13 12 14 12 12 13 13 11 12 12 11 8 8 8 9 8 7 6 6 6 6 6 6 5 5 5 5 5 5 5 4 4 4 5 6
19 19 19 19 19 18 16 14 14 14 13 14 12 12 12 13 12 13 12 12 10 10 9 8 8 7 6 6 6 5 5 5 6 6 5 5 5 6 6 6 6 6 7 7
19 20 21 21 21 19 18 17 16 16 15 13 12 15 13 14 14 14 13 13 11 11 10 8 8 8 7 6 6 6 6 6 6 6 6 6 6 6 6 7 7 8 7 7
21 21 20 21 21 20 19 18 17 18 17 16 15 15 14 14 15 15 13 12 12 12 11 9 8 8 8 8 7 6 6 7 7 7 7 7 7 7 8 8 8 9 9 9
23 22 21 21 21 20 21 20 18 20 20 18 16 13 13 15 16 15 15 14 13 12 12 12 11 10 9 9 9 8 8 8 9 9 9 9 9 9 10 10 10 10 10 10
24 24 22 22 22 20 21 21 20 20 20 18 16 14 15 18 17 15 15 17 15 14 13 14 12 12 12 11 11 10 10 11 11 11 11 11 11 11 12 12 12 12 12 12
25 24 24 23 23 21 21 22 22 22 21 19 19 19 16 17 17 17 16 18 18 16 16 14 14 14 13 14 13 12 13 13 13 13 13 13 13 13 13 13 13 13 14 14
25 25 24 22 21 21 23 24 23 22 22 22 22 21 17 17 18 19 18 18 19 18 18 17 16 16 15 15 15 15 15 14 15 15 15 15 15 15 15 15 15 15 16 16
27 27 27 25 23 23 23 24 23 24 24 23 22 23 21 22 21 21 19 20 21 21 21 20 19 18 18 17 17 17 17 17 17 17 17 17 18 18 18 18 18 17 18 18
28 28 28 27 26 25 25 24 24 24 25 24 24 26 26 26 24 23 21 22 23 22 22 22 22 21 21 19 19 19 19 19 19 19 19 19 20 20 20 20 19 19 19 19
27 28 28 27 26 25 26 26 26 26 25 25 26 28 28 29 26 24 23 24 24 24 23 23 24 23 22 22 21 21 21 21 21 21 21 21 21 22 22 21 22 21 21 21
27 27 27 26 25 25 27 26 26 27 25 27 29 30 29 28 27 26 26 26 25 24 24 24 24 24 24 23 23 24 24 23 23 23 23 23 23 23 23 23 23 24 24 25
27 28 28 26 26 27 26 26 27 28 28 29 30 30 31 31 29 27 28 27 26 25 26 26 25 25 24 25 25 25 24 24 24 23 23 23 23 24 24 25 25 26 26 26
28 28 28 27 26 27 27 27 26 27 30 30 31 31 31 32 31 29 28 28 28 27 27 27 26 25 24 25 25 24 25 25 25 25 24 24 25 25 25 25 26 26 27 27
26 27 28 27 26 26 28 28 27 28 30 30 31 32 32 32 32 30 29 28 29 29 29 29 27 26 25 25 25 26 27 27 28 27 27 27 27 27 27 27 27 28 29 28
25 26 28 28 26 26 26 27 27 30 31 30 31 31 31 32 33 31 31 30 30 30 30 29 29 28 27 27 28 28 28 28 29 29 30 29 28 29 29 29 30 30 30 30
24 24 26 26 27 27 27 27 28 29 28 28 30 31 31 32 33 33 31 30 30 31 31 31 31 30 29 30 30 30 29 29 30 30 30 30 30 31 31 31 30 30 30 30
24 25 25 27 28 28 28 28 29 29 29 29 30 31 32 33 32 32 31 30 30 31 32 32 32 31 30 30 30 30 30 31 31 31 31 32 32 33 32 31 31 31 31 32
22 24 25 26 26 27 26 27 29 30 29 28 30 30 31 32 32 32 32 31 31 32 32 32 32 32 31 31 31 31 31 31 31 32 32 32 33 33 32 32 32 33 32 32
23 24 25 26 25 27 26 26 28 28 27 29 30 31 32 32 32 33 32 32 32 32 32 31 31 31 31 30 30 30 31 31 31 32 32 32 32 32 33 34 33 33 33 32
22 23 25 26 26 27 26 25 27 26 27 28 28 29 30 29 30 30 29 30 31 31 29 29 30 30 30 30 29 30 30 31 30 31 32 32 33 33 33 34 34 34 34 34
Wind_Direction
215 218 221 222 219 233 253 271 285 296 293 293 309 316 327 344 347 348 354 359 4 10 16 19 20 21 21 22 22 24 28 30 35 37 39 53 66 80 86 80 82 87 86 81
222 228 230 225 225 229 244 258 265 283 288 289 294 304 311 320 336 342 347 351 356 1 8 14 16 17 18 20 23 27 32 32 35 36 34 38 41 67 74 82 84 82 81 72
230 233 230 226 231 234 233 244 253 260 268 277 290 298 292 307 327 334 338 343 348 355 359 4 11 15 16 18 20 24 26 29 30 29 29 33 40 51 71 77 69 51 37 13
233 234 231 231 232 232 235 239 247 259 261 265 275 280 296 298 315 321 325 334 340 348 350 355 3 9 11 14 17 18 21 24 28 33 33 33 35 37 45 40 21 359 333 329
231 234 233 231 234 235 235 234 241 251 258 256 259 275 291 291 300 307 312 316 325 335 340 345 350 358 2 7 11 14 17 20 22 28 26 23 21 19 20 17 5 342 327 328
232 235 238 233 233 236 235 235 247 244 247 256 252 262 278 288 286 297 299 309 313 320 326 332 336 347 353 358 2 6 8 7 10 9 7 5 5 4 3 355 348 342 336 331
231 235 239 240 234 233 234 238 250 247 249 260 265 260 273 280 285 292 294 300 309 312 311 319 322 326 336 340 346 347 350 348 349 348 347 348 348 350 349 346 340 338 335 331
233 238 237 240 237 228 232 233 242 255 255 260 261 263 264 274 276 282 287 293 300 301 299 304 310 311 317 320 325 329 330 332 334 334 329 331 331 331 330 330 328 330 327 324
226 235 238 240 238 232 230 231 232 252 255 255 250 259 271 273 279 279 284 290 292 292 290 293 297 302 308 311 312 312 314 318 322 323 319 315 314 315 315 313 314 316 317 317
224 229 231 238 240 236 232 233 236 240 249 255 253 259 265 270 270 275 279 278 280 281 282 280 281 290 296 300 300 302 302 304 310 312 311 306 302 301 303 303 305 309 308 308
228 229 231 234 237 235 232 234 237 243 248 253 258 257 263 272 270 267 272 275 275 277 273 275 275 279 283 289 293 294 294 296 297 300 301 300 298 297 298 299 301 303 303 302
227 229 231 232 237 236 235 235 237 245 250 252 256 260 260 268 272 274 269 272 276 276 274 273 277 277 280 286 288 288 287 289 290 293 295 294 292 293 295 294 295 297 300 299
228 228 232 233 233 233 234 232 234 239 250 256 258 261 255 260 266 270 270 273 275 275 273 271 272 274 277 280 282 283 283 283 285 287 289 290 289 289 289 289 289 290 294 295
230 230 229 231 229 230 238 237 236 235 240 250 255 260 259 259 259 263 261 266 269 270 269 270 271 272 275 277 277 280 281 281 282 283 285 288 288 287 286 287 285 286 289 290
230 232 230 232 231 231 235 240 242 241 240 246 251 256 258 260 259 259 260 262 266 269 268 268 270 271 274 275 275 277 280 281 282 282 284 285 285 284 283 284 286 288 288 287
232 234 234 234 232 234 234 234 237 243 244 245 249 253 254 258 261 260 263 265 267 268 270 271 271 272 273 274 274 274 275 278 280 281 281 282 282 281 280 282 283 284 285 285
235 236 236 238 235 236 239 236 239 244 242 242 246 251 254 256 259 264 265 265 265 266 270 270 269 269 270 271 272 273 274 276 277 280 282 281 279 280 280 282 282 281 282 284
236 238 238 238 238 239 237 236 239 243 243 244 248 253 255 259 264 267 265 266 264 264 267 269 269 269 270 271 271 272 272 273 275 278 280 279 279 279 279 280 282 282 281 282
237 238 238 239 242 245 241 241 239 241 243 244 248 251 254 258 261 261 263 266 266 265 266 269 271 271 271 271 272 272 272 272 274 276 277 277 277 278 280 281 281 281 280 280
240 240 240 239 241 244 245 246 246 243 244 245 250 253 254 255 260 260 260 263 266 266 266 267 269 270 271 271 271 271 272 273 273 276 276 276 276 278 279 280 280 280 280 280
239 240 240 241 243 248 247 247 248 247 248 249 252 255 255 256 259 261 261 261 263 264 264 266 268 270 273 272 271 270 271 272 274 275 275 275 275 276 277 279 279 279 280 279
238 238 239 240 241 244 246 247 247 251 254 255 255 257 259 260 260 260 260 263 265 265 265 266 267 270 273 274 273 273 272 274 274 274 274 274 275 275 276 277 278 279 278 278
237 237 240 239 241 246 249 251 251 253 254 255 258 259 262 261 263 262 262 265 267 266 267 268 268 270 272 273 274 273 273 274 274 274 274 274 274 274 275 276 277 277 278 279
236 237 241 242 245 250 253 252 253 256 257 260 263 262 262 265 264 263 263 264 265 267 269 268 269 270 271 272 272 273 273 273 274 274 274 273 272 272 274 277 277 277 277 279
237 240 242 246 247 249 252 254 255 258 260 263 265 264 263 263 266 266 262 262 264 266 268 266 267 270 271 273 272 272 274 276 277 277 276 274 273 274 277 278 277 276 277 279
239 242 242 246 251 253 255 259 260 262 263 263 264 263 263 263 264 264 262 262 264 265 267 265 266 268 270 271 273 274 274 276 277 277 278 277 276 276 278 279 279 278 279 281
Height
5899 5902 5904 5906 5908 5910 5910 5911 5914 5914 5913 5912 5911 5908 5907 5906 5905 5903 5900 5899 5897 5895 5893 5892 5890 5889 5888 5887 5886 5885 5885 5884 5884 5884 5884 5884 5884 5884 5885 5885 5885 5885 5886 5886
5898 5900 5903 5905 5907 5909 5910 5911 5912 5914 5912 5912 5911 5910 5907 5906 5905 5903 5901 5899 5898 5896 5895 5893 5892 5891 5889 5888 5887 5886 5886 5886 5885 5885 5885 5886 5885 5886 5886 5886 5887 5887 5887 5888
5896 5900 5902 5904 5906 5908 5909 5911 5912 5912 5911 5911 5910 5909 5906 5905 5904 5903 5902 5900 5898 5897 5896 5894 5893 5892 5891 5889 5889 5888 5888 5887 5887 5887 5887 5887 5887 5887 5887 5887 5888 5888 5888 5889
5894 5897 5899 5901 5904 5906 5908 5909 5910 5910 5910 5910 5910 5908 5907 5904 5904 5903 5901 5900 5899 5897 5896 5895 5894 5893 5892 5891 5890 5889 5889 5889 5889 5888 5888 5888 5888 5888 5888 5888 5888 5889 5889 5889
5890 5893 5896 5898 5902 5904 5905 5906 5906 5907 5907 5907 5908 5907 5906 5903 5902 5902 5900 5899 5898 5897 5896 5895 5894 5894 5893 5892 5891 5890 5890 5890 5890 5890 5890 5890 5889 5889 5889 5889 5889 5889 5889 5889
5886 5890 5893 5895 5898 5900 5902 5903 5904 5904 5905 5905 5905 5906 5905 5901 5900 5901 5900 5898 5897 5897 5897 5896 5895 5894 5894 5893 5892 5892 5891 5891 5891 5891 5891 5891 5890 5890 5890 5889 5889 5889 5889 5889
5883 5886 5889 5891 5893 5896 5899 5901 5902 5902 5902 5902 5903 5902 5903 5901 5899 5899 5899 5898 5897 5896 5896 5895 5895 5894 5894 5893 5893 5893 5892 5892 5892 5891 5891 5891 5891 5890 5890 5890 5889 5889 5889 5889
5880 5883 5885 5887 5889 5892 5895 5897 5899 5899 5899 5900 5900 5900 5900 5899 5898 5898 5897 5896 5896 5896 5895 5894 5894 5894 5893 5893 5893 5893 5892 5892 5892 5892 5891 5891 5891 5890 5890 5890 5890 5889 5889 5888
5876 5880 5882 5883 5885 5889 5891 5892 5896 5897 5897 5897 5896 5897 5897 5896 5896 5895 5895 5895 5895 5894 5894 5893 5893 5893 5892 5892 5892 5892 5892 5892 5892 5891 5891 5891 5890 5890 5890 5889 5889 5888 5888 5887
5871 5874 5877 5879 5881 5883 5886 5888 5892 5893 5893 5893 5893 5892 5894 5892 5892 5892 5893 5893 5892 5892 5892 5891 5891 5891 5891 5891 5891 5891 5891 5891 5891 5890 5890 5889 5889 5889 5888 5888 5888 5887 5886 5886
5866 5868 5872 5875 5876 5879 5882 5884 5885 5887 5888 5889 5889 5892 5891 5890 5889 5889 5890 5890 5888 5889 5888 5889 5888 5889 5889 5889 5889 5889 5889 5889 5889 5889 5888 5888 5887 5887 5886 5886 5886 5885 5884 5884
5858 5862 5865 5869 5872 5874 5877 5880 5882 5884 5884 5885 5886 5888 5887 5886 5885 5884 5884 5885 5885 5885 5886 5885 5885 5886 5886 5886 5885 5886 5887 5886 5886 5886 5886 5885 5885 5884 5884 5884 5883 5883 5882 5881
5852 5856 5860 5863 5868 5869 5871 5873 5876 5879 5881 5881 5882 5884 5882 5883 5882 5881 5881 5881 5881 5881 5882 5882 5883 5883 5883 5883 5883 5883 5883 5883 5883 5883 5883 5882 5882 5882 5881 5881 5880 5880 5879 5878
5846 5849 5853 5857 5859 5863 5864 5866 5869 5873 5874 5876 5877 5877 5877 5876 5877 5877 5877 5877 5877 5878 5878 5879 5879 5880 5880 5880 5880 5880 5879 5879 5879 5879 5879 5879 5878 5878 5877 5877 5876 5875 5875 5874
5839 5843 5846 5849 5853 5855 5859 5861 5863 5865 5868 5871 5872 5871 5872 5871 5870 5871 5872 5873 5873 5873 5873 5874 5875 5875 5875 5876 5876 5875 5875 5875 5875 5875 5875 5874 5874 5873 5873 5872 5872 5871 5870 5869
5832 5836 5839 5842 5845 5848 5851 5854 5857 5859 5861 5863 5864 5864 5863 5864 5864 5865 5866 5868 5868 5868 5868 5869 5870 5870 5870 5871 5871 5871 5871 5871 5870 5870 5870 5869 5868 5868 5868 5867 5867 5866 5865 5864
5826 5830 5833 5836 5839 5841 5844 5847 5850 5853 5854 5856 5856 5856 5856 5857 5859 5859 5861 5861 5862 5862 5863 5863 5864 5864 5865 5865 5865 5866 5865 5865 5864 5864 5864 5863 5863 5862 5861 5861 5861 5860 5860 5859
5821 5823 5826 5829 5832 5834 5839 5840 5842 5845 5847 5848 5849 5849 5850 5851 5852 5853 5854 5855 5855 5856 5857 5857 5857 5858 5858 5858 5859 5859 5859 5859 5859 5858 5858 5857 5857 5856 5856 5855 5854 5854 5853 5853
5814 5817 5819 5822 5824 5827 5831 5832 5834 5837 5838 5840 5841 5842 5843 5843 5845 5847 5847 5848 5848 5849 5849 5850 5850 5851 5851 5852 5852 5852 5852 5852 5852 5852 5852 5851 5850 5850 5849 5849 5848 5847 5847 5846
5807 5810 5813 5816 5818 5820 5824 5825 5827 5829 5830 5831 5832 5833 5834 5835 5836 5839 5840 5841 5841 5841 5842 5843 5843 5844 5844 5844 5844 5844 5845 5845 5845 5845 5844 5844 5843 5843 5842 5842 5841 5840 5839 5838
5801 5804 5806 5809 5811 5813 5815 5817 5819 5822 5823 5824 5825 5825 5825 5827 5829 5830 5832 5833 5833 5833 5834 5834 5835 5836 5836 5837 5837 5837 5837 5837 5837 5837 5836 5836 5836 5835 5835 5834 5833 5832 5830 5829
5796 5799 5801 5803 5805 5808 5808 5809 5811 5813 5814 5815 5817 5818 5818 5820 5821 5822 5822 5824 5825 5825 5825 5826 5827 5827 5828 5828 5828 5828 5829 5828 5828 5828 5828 5827 5827 5826 5826 5825 5824 5823 5822 5821
5790 5793 5795 5797 5799 5799 5800 5802 5803 5805 5807 5807 5808 5810 5811 5811 5812 5813 5814 5815 5816 5816 5817 5818 5818 5819 5819 5819 5819 5820 5820 5820 5819 5819 5818 5818 5817 5817 5817 5816 5814 5813 5812 5811
5784 5787 5789 5790 5792 5793 5793 5795 5796 5797 5798 5800 5801 5802 5803 5803 5804 5805 5806 5807 5807 5808 5808 5809 5809 5810 5811 5811 5811 5811 5811 5810 5810 5810 5809 5808 5808 5807 5807 5805 5804 5803 5802 5801
5778 5780 5782 5783 5785 5786 5786 5787 5788 5789 5791 5792 5793 5794 5794 5795 5796 5797 5798 5799 5799 5799 5800 5800 5801 5801 5802 5802 5802 5802 5802 5801 5801 5800 5799 5799 5798 5798 5797 5796 5794 5793 5792 5790
5772 5774 5775 5777 5779 5779 5780 5781 5781 5782 5784 5785 5785 5785 5786 5787 5788 5788 5789 5790 5790 5791 5791 5791 5793 5793 5794 5794 5794 5794 5793 5793 5792 5792 5791 5790 5789 5788 5788 5787 5785 5783 5783 5781